Year,Month,Day,Hour,Minute,Value (Times are PST for temperature in C)
2011,06,26,00,00,11.60
2011,06,26,00,01,11.60
2011,06,26,00,02,11.60
2011,06,26,00,03,11.60
2011,06,26,00,04,11.60
2011,06,26,00,05,11.50
2011,06,26,00,06,11.50
2011,06,26,00,07,11.50
2011,06,26,00,08,11.50
2011,06,26,00,09,11.50
2011,06,26,00,10,11.40
2011,06,26,00,11,11.40
2011,06,26,00,12,11.40
2011,06,26,00,13,11.40
2011,06,26,00,14,11.40
2011,06,26,00,15,11.40
2011,06,26,00,16,11.40
2011,06,26,00,17,11.40
2011,06,26,00,18,11.40
2011,06,26,00,19,11.40
2011,06,26,00,20,11.40
2011,06,26,00,21,11.40
2011,06,26,00,22,11.40
2011,06,26,00,23,11.30
2011,06,26,00,24,11.30
2011,06,26,00,25,11.30
2011,06,26,00,26,11.30
2011,06,26,00,27,11.30
2011,06,26,00,28,11.20
2011,06,26,00,29,11.20
2011,06,26,00,30,11.20
2011,06,26,00,31,11.20
2011,06,26,00,32,11.20
2011,06,26,00,33,11.20
2011,06,26,00,34,11.20
2011,06,26,00,35,11.20
2011,06,26,00,36,11.20
2011,06,26,00,37,11.10
2011,06,26,00,38,11.10
2011,06,26,00,39,11.10
2011,06,26,00,40,11.10
2011,06,26,00,41,11.10
2011,06,26,00,42,11.10
2011,06,26,00,43,11.10
2011,06,26,00,44,11.10
2011,06,26,00,45,11.00
2011,06,26,00,46,11.00
2011,06,26,00,47,11.00
2011,06,26,00,48,10.90
2011,06,26,00,49,10.90
2011,06,26,00,50,10.90
2011,06,26,00,51,10.90
2011,06,26,00,52,10.90
2011,06,26,00,53,10.90
2011,06,26,00,54,10.90
2011,06,26,00,55,10.80
2011,06,26,00,56,10.80
2011,06,26,00,57,10.80
2011,06,26,00,58,10.80
2011,06,26,00,59,10.80
2011,06,26,01,00,10.80
2011,06,26,01,01,10.80
2011,06,26,01,02,10.70
2011,06,26,01,03,10.70
2011,06,26,01,04,10.70
2011,06,26,01,05,10.70
2011,06,26,01,06,10.70
2011,06,26,01,07,10.70
2011,06,26,01,08,10.70
2011,06,26,01,09,10.70
2011,06,26,01,10,10.60
2011,06,26,01,11,10.60
2011,06,26,01,12,10.60
2011,06,26,01,13,10.60
2011,06,26,01,14,10.60
2011,06,26,01,15,10.60
2011,06,26,01,16,10.60
2011,06,26,01,17,10.60
2011,06,26,01,18,10.50
2011,06,26,01,19,10.50
2011,06,26,01,20,10.50
2011,06,26,01,21,10.50
2011,06,26,01,22,10.50
2011,06,26,01,23,10.40
2011,06,26,01,24,10.40
2011,06,26,01,25,10.40
2011,06,26,01,26,10.40
2011,06,26,01,27,10.40
2011,06,26,01,28,10.40
2011,06,26,01,29,10.30
2011,06,26,01,30,10.30
2011,06,26,01,31,10.30
2011,06,26,01,32,10.30
2011,06,26,01,33,10.30
2011,06,26,01,34,10.30
2011,06,26,01,35,10.30
2011,06,26,01,36,10.30
2011,06,26,01,37,10.30
2011,06,26,01,38,10.20
2011,06,26,01,39,10.20
2011,06,26,01,40,10.20
2011,06,26,01,41,10.20
2011,06,26,01,42,10.20
2011,06,26,01,43,10.20
2011,06,26,01,44,10.20
2011,06,26,01,45,10.10
2011,06,26,01,46,10.10
2011,06,26,01,47,10.10
2011,06,26,01,48,10.10
2011,06,26,01,49,10.10
2011,06,26,01,50,10.10
2011,06,26,01,51,10.10
2011,06,26,01,52,10.10
2011,06,26,01,53,10.00
2011,06,26,01,54,10.00
2011,06,26,01,55,10.00
2011,06,26,01,56,10.00
2011,06,26,01,57,10.00
2011,06,26,01,58,9.90
2011,06,26,01,59,10.00
2011,06,26,02,00,10.00
2011,06,26,02,01,9.90
2011,06,26,02,02,9.90
2011,06,26,02,03,9.90
2011,06,26,02,04,9.90
2011,06,26,02,05,9.90
2011,06,26,02,06,9.90
2011,06,26,02,07,9.90
2011,06,26,02,08,9.90
2011,06,26,02,09,9.90
2011,06,26,02,10,9.90
2011,06,26,02,11,9.80
2011,06,26,02,12,9.80
2011,06,26,02,13,9.80
2011,06,26,02,14,9.80
2011,06,26,02,15,9.80
2011,06,26,02,16,9.80
2011,06,26,02,17,9.80
2011,06,26,02,18,9.80
2011,06,26,02,19,9.80
2011,06,26,02,20,9.80
2011,06,26,02,21,9.80
2011,06,26,02,22,9.80
2011,06,26,02,23,9.80
2011,06,26,02,24,9.80
2011,06,26,02,25,9.80
2011,06,26,02,26,9.80
2011,06,26,02,27,9.80
2011,06,26,02,28,9.80
2011,06,26,02,29,9.70
2011,06,26,02,30,9.70
2011,06,26,02,31,9.70
2011,06,26,02,32,9.70
2011,06,26,02,33,9.70
2011,06,26,02,34,9.70
2011,06,26,02,35,9.70
2011,06,26,02,36,9.70
2011,06,26,02,37,9.70
2011,06,26,02,38,9.60
2011,06,26,02,39,9.60
2011,06,26,02,40,9.60
2011,06,26,02,41,9.60
2011,06,26,02,42,9.60
2011,06,26,02,43,9.60
2011,06,26,02,44,9.60
2011,06,26,02,45,9.60
2011,06,26,02,46,9.60
2011,06,26,02,47,9.60
2011,06,26,02,48,9.60
2011,06,26,02,49,9.60
2011,06,26,02,50,9.60
2011,06,26,02,51,9.60
2011,06,26,02,52,9.60
2011,06,26,02,53,9.60
2011,06,26,02,54,9.60
2011,06,26,02,55,9.60
2011,06,26,02,56,9.60
2011,06,26,02,57,9.50
2011,06,26,02,58,9.50
2011,06,26,02,59,9.50
2011,06,26,03,00,9.50
2011,06,26,03,01,9.40
2011,06,26,03,02,9.40
2011,06,26,03,06,9.40
2011,06,26,03,07,9.40
2011,06,26,03,08,9.40
2011,06,26,03,09,9.40
2011,06,26,03,10,9.40
2011,06,26,03,11,9.40
2011,06,26,03,12,9.40
2011,06,26,03,13,9.40
2011,06,26,03,14,9.40
2011,06,26,03,15,9.40
2011,06,26,03,16,9.40
2011,06,26,03,17,9.40
2011,06,26,03,18,9.40
2011,06,26,03,19,9.40
2011,06,26,03,20,9.40
2011,06,26,03,21,9.40
2011,06,26,03,22,9.40
2011,06,26,03,23,9.40
2011,06,26,03,24,9.30
2011,06,26,03,25,9.30
2011,06,26,03,26,9.30
2011,06,26,03,27,9.30
2011,06,26,03,28,9.30
2011,06,26,03,29,9.30
2011,06,26,03,30,9.30
2011,06,26,03,31,9.30
2011,06,26,03,32,9.30
2011,06,26,03,33,9.30
2011,06,26,03,34,9.30
2011,06,26,03,35,9.30
2011,06,26,03,36,9.30
2011,06,26,03,37,9.30
2011,06,26,03,38,9.30
2011,06,26,03,39,9.30
2011,06,26,03,40,9.30
2011,06,26,03,41,9.20
2011,06,26,03,42,9.20
2011,06,26,03,43,9.20
2011,06,26,03,44,9.20
2011,06,26,03,45,9.20
2011,06,26,03,46,9.20
2011,06,26,03,47,9.20
2011,06,26,03,48,9.20
2011,06,26,03,49,9.20
2011,06,26,03,50,9.20
2011,06,26,03,51,9.10
2011,06,26,03,52,9.10
2011,06,26,03,53,9.10
2011,06,26,03,54,9.10
2011,06,26,03,55,9.10
2011,06,26,03,56,9.10
2011,06,26,03,57,9.10
2011,06,26,03,58,9.10
2011,06,26,03,59,9.10
2011,06,26,04,00,9.10
2011,06,26,04,01,9.10
2011,06,26,04,02,9.10
2011,06,26,04,03,9.00
2011,06,26,04,04,9.00
2011,06,26,04,05,9.00
2011,06,26,04,06,9.00
2011,06,26,04,07,8.90
2011,06,26,04,08,8.90
2011,06,26,04,09,8.90
2011,06,26,04,10,8.90
2011,06,26,04,11,8.90
2011,06,26,04,12,8.90
2011,06,26,04,13,8.90
2011,06,26,04,14,8.80
2011,06,26,04,15,8.80
2011,06,26,04,16,8.80
2011,06,26,04,17,8.80
2011,06,26,04,18,8.80
2011,06,26,04,19,8.80
2011,06,26,04,20,8.80
2011,06,26,04,21,8.80
2011,06,26,04,22,8.70
2011,06,26,04,23,8.80
2011,06,26,04,24,8.70
2011,06,26,04,25,8.70
2011,06,26,04,26,8.70
2011,06,26,04,27,8.70
2011,06,26,04,28,8.70
2011,06,26,04,29,8.70
2011,06,26,04,30,8.60
2011,06,26,04,31,8.60
2011,06,26,04,32,8.60
2011,06,26,04,33,8.60
2011,06,26,04,34,8.60
2011,06,26,04,35,8.60
2011,06,26,04,36,8.60
2011,06,26,04,37,8.60
2011,06,26,04,38,8.60
2011,06,26,04,39,8.60
2011,06,26,04,40,8.60
2011,06,26,04,41,8.60
2011,06,26,04,42,8.70
2011,06,26,04,43,8.70
2011,06,26,04,44,8.70
2011,06,26,04,45,8.70
2011,06,26,04,46,8.70
2011,06,26,04,47,8.80
2011,06,26,04,48,8.80
2011,06,26,04,49,8.80
2011,06,26,04,50,8.80
2011,06,26,04,51,8.80
2011,06,26,04,52,8.90
2011,06,26,04,53,8.90
2011,06,26,04,54,8.90
2011,06,26,04,55,8.90
2011,06,26,04,56,8.90
2011,06,26,04,57,8.90
2011,06,26,04,58,8.90
2011,06,26,04,59,8.90
2011,06,26,05,00,8.90
2011,06,26,05,01,8.90
2011,06,26,05,02,8.80
2011,06,26,05,03,8.80
2011,06,26,05,04,8.80
2011,06,26,05,05,8.80
2011,06,26,05,06,8.70
2011,06,26,05,07,8.70
2011,06,26,05,08,8.70
2011,06,26,05,09,8.70
2011,06,26,05,10,8.70
2011,06,26,05,11,8.80
2011,06,26,05,12,8.80
2011,06,26,05,13,8.80
2011,06,26,05,14,8.80
2011,06,26,05,15,8.80
2011,06,26,05,16,8.90
2011,06,26,05,17,8.90
2011,06,26,05,18,8.90
2011,06,26,05,19,8.90
2011,06,26,05,20,8.90
2011,06,26,05,21,8.90
2011,06,26,05,22,8.90
2011,06,26,05,23,8.90
2011,06,26,05,24,8.90
2011,06,26,05,25,8.90
2011,06,26,05,26,8.90
2011,06,26,05,27,8.90
2011,06,26,05,28,8.90
2011,06,26,05,29,8.90
2011,06,26,05,30,8.90
2011,06,26,05,31,8.90
2011,06,26,05,32,8.90
2011,06,26,05,33,9.00
2011,06,26,05,34,9.00
2011,06,26,05,35,9.00
2011,06,26,05,36,9.10
2011,06,26,05,37,9.10
2011,06,26,05,38,9.10
2011,06,26,05,39,9.10
2011,06,26,05,40,9.10
2011,06,26,05,41,9.00
2011,06,26,05,42,9.00
2011,06,26,05,43,9.10
2011,06,26,05,44,9.10
2011,06,26,05,45,9.10
2011,06,26,05,46,9.10
2011,06,26,05,47,9.10
2011,06,26,05,48,9.10
2011,06,26,05,49,9.10
2011,06,26,05,50,9.00
2011,06,26,05,51,9.00
2011,06,26,05,52,9.00
2011,06,26,05,53,9.00
2011,06,26,05,54,9.00
2011,06,26,05,55,9.00
2011,06,26,05,56,9.00
2011,06,26,05,57,9.00
2011,06,26,05,58,9.00
2011,06,26,05,59,9.10
2011,06,26,06,00,9.10
2011,06,26,06,01,9.10
2011,06,26,06,02,9.10
2011,06,26,06,03,9.20
2011,06,26,06,04,9.20
2011,06,26,06,05,9.20
2011,06,26,06,06,9.20
2011,06,26,06,07,9.30
2011,06,26,06,08,9.30
2011,06,26,06,09,9.40
2011,06,26,06,10,9.40
2011,06,26,06,11,9.50
2011,06,26,06,12,9.50
2011,06,26,06,13,9.60
2011,06,26,06,14,9.60
2011,06,26,06,15,9.70
2011,06,26,06,16,9.80
2011,06,26,06,17,9.80
2011,06,26,06,18,9.90
2011,06,26,06,19,9.90
2011,06,26,06,20,9.90
2011,06,26,06,21,10.00
2011,06,26,06,22,10.00
2011,06,26,06,23,10.10
2011,06,26,06,24,10.10
2011,06,26,06,25,10.20
2011,06,26,06,26,10.30
2011,06,26,06,27,10.40
2011,06,26,06,28,10.40
2011,06,26,06,29,10.50
2011,06,26,06,30,10.50
2011,06,26,06,31,10.60
2011,06,26,06,32,10.70
2011,06,26,06,33,10.80
2011,06,26,06,34,10.80
2011,06,26,06,35,10.90
2011,06,26,06,36,11.00
2011,06,26,06,37,11.00
2011,06,26,06,38,11.10
2011,06,26,06,39,11.20
2011,06,26,06,40,11.20
2011,06,26,06,41,11.20
2011,06,26,06,42,11.30
2011,06,26,06,43,11.30
2011,06,26,06,44,11.30
2011,06,26,06,45,11.30
2011,06,26,06,46,11.40
2011,06,26,06,47,11.40
2011,06,26,06,48,11.40
2011,06,26,06,49,11.40
2011,06,26,06,50,11.50
2011,06,26,06,51,11.50
2011,06,26,06,52,11.50
2011,06,26,06,53,11.60
2011,06,26,06,54,11.60
2011,06,26,06,55,11.60
2011,06,26,06,56,11.60
2011,06,26,06,57,11.60
2011,06,26,06,58,11.60
2011,06,26,06,59,11.60
2011,06,26,07,00,11.60
2011,06,26,07,01,11.60
2011,06,26,07,02,11.60
2011,06,26,07,03,11.60
2011,06,26,07,04,11.60
2011,06,26,07,05,11.60
2011,06,26,07,06,11.60
2011,06,26,07,07,11.60
2011,06,26,07,08,11.60
2011,06,26,07,09,11.60
2011,06,26,07,10,11.60
2011,06,26,07,11,11.70
2011,06,26,07,12,11.70
2011,06,26,07,13,11.70
2011,06,26,07,14,11.80
2011,06,26,07,15,11.80
2011,06,26,07,16,11.90
2011,06,26,07,17,12.00
2011,06,26,07,18,12.10
2011,06,26,07,19,12.10
2011,06,26,07,20,12.20
2011,06,26,07,21,12.20
2011,06,26,07,22,12.20
2011,06,26,07,23,12.20
2011,06,26,07,24,12.20
2011,06,26,07,25,12.20
2011,06,26,07,26,12.20
2011,06,26,07,27,12.20
2011,06,26,07,28,12.20
2011,06,26,07,29,12.20
2011,06,26,07,30,12.20
2011,06,26,07,31,12.20
2011,06,26,07,32,12.20
2011,06,26,07,33,12.20
2011,06,26,07,34,12.20
2011,06,26,07,35,12.20
2011,06,26,07,36,12.20
2011,06,26,07,37,12.20
2011,06,26,07,38,12.20
2011,06,26,07,39,12.20
2011,06,26,07,40,12.30
2011,06,26,07,41,12.30
2011,06,26,07,42,12.30
2011,06,26,07,43,12.30
2011,06,26,07,44,12.40
2011,06,26,07,45,12.40
2011,06,26,07,46,12.50
2011,06,26,07,47,12.50
2011,06,26,07,48,12.60
2011,06,26,07,49,12.60
2011,06,26,07,50,12.70
2011,06,26,07,51,12.80
2011,06,26,07,52,12.90
2011,06,26,07,53,13.00
2011,06,26,07,54,13.10
2011,06,26,07,55,13.10
2011,06,26,07,56,13.10
2011,06,26,07,57,13.10
2011,06,26,07,58,13.10
2011,06,26,07,59,13.20
2011,06,26,08,00,13.20
2011,06,26,08,01,13.20
2011,06,26,08,02,13.20
2011,06,26,08,03,13.30
2011,06,26,08,04,13.40
2011,06,26,08,05,13.40
2011,06,26,08,06,13.40
2011,06,26,08,07,13.40
2011,06,26,08,08,13.40
2011,06,26,08,09,13.50
2011,06,26,08,10,13.60
2011,06,26,08,11,13.60
2011,06,26,08,12,13.70
2011,06,26,08,13,13.80
2011,06,26,08,14,13.80
2011,06,26,08,15,13.80
2011,06,26,08,16,13.80
2011,06,26,08,17,13.80
2011,06,26,08,18,13.90
2011,06,26,08,19,13.90
2011,06,26,08,20,13.90
2011,06,26,08,21,13.90
2011,06,26,08,22,13.90
2011,06,26,08,23,13.90
2011,06,26,08,24,13.90
2011,06,26,08,25,13.90
2011,06,26,08,26,13.90
2011,06,26,08,27,13.90
2011,06,26,08,28,13.90
2011,06,26,08,29,13.90
2011,06,26,08,30,13.90
2011,06,26,08,31,13.90
2011,06,26,08,32,13.80
2011,06,26,08,33,13.80
2011,06,26,08,34,13.80
2011,06,26,08,35,13.90
2011,06,26,08,36,13.90
2011,06,26,08,37,14.00
2011,06,26,08,38,14.10
2011,06,26,08,39,14.20
2011,06,26,08,40,14.20
2011,06,26,08,41,14.20
2011,06,26,08,42,14.30
2011,06,26,08,43,14.40
2011,06,26,08,44,14.40
2011,06,26,08,45,14.50
2011,06,26,08,46,14.50
2011,06,26,08,47,14.60
2011,06,26,08,48,14.70
2011,06,26,08,49,14.80
2011,06,26,08,50,14.70
2011,06,26,08,51,14.60
2011,06,26,08,52,14.60
2011,06,26,08,53,14.70
2011,06,26,08,54,14.80
2011,06,26,08,55,15.00
2011,06,26,08,56,15.00
2011,06,26,08,57,15.00
2011,06,26,08,58,15.00
2011,06,26,08,59,15.00
2011,06,26,09,00,15.10
2011,06,26,09,01,15.10
2011,06,26,09,02,15.10
2011,06,26,09,03,15.10
2011,06,26,09,04,15.00
2011,06,26,09,05,15.00
2011,06,26,09,06,15.10
2011,06,26,09,07,15.20
2011,06,26,09,08,15.30
2011,06,26,09,09,15.40
2011,06,26,09,10,15.40
2011,06,26,09,11,15.40
2011,06,26,09,12,15.50
2011,06,26,09,13,15.60
2011,06,26,09,14,15.50
2011,06,26,09,15,15.50
2011,06,26,09,16,15.40
2011,06,26,09,17,15.50
2011,06,26,09,18,15.60
2011,06,26,09,19,15.70
2011,06,26,09,20,15.80
2011,06,26,09,21,15.90
2011,06,26,09,22,16.00
2011,06,26,09,23,16.20
2011,06,26,09,24,16.20
2011,06,26,09,25,16.30
2011,06,26,09,26,16.50
2011,06,26,09,27,16.60
2011,06,26,09,28,16.60
2011,06,26,09,29,16.60
2011,06,26,09,30,16.70
2011,06,26,09,31,16.80
2011,06,26,09,32,16.80
2011,06,26,09,33,16.90
2011,06,26,09,34,17.00
2011,06,26,09,35,16.90
2011,06,26,09,36,16.90
2011,06,26,09,37,16.90
2011,06,26,09,38,16.90
2011,06,26,09,39,16.80
2011,06,26,09,40,16.70
2011,06,26,09,41,16.50
2011,06,26,09,42,16.40
2011,06,26,09,43,16.30
2011,06,26,09,44,16.20
2011,06,26,09,45,16.30
2011,06,26,09,46,16.40
2011,06,26,09,47,16.40
2011,06,26,09,48,16.50
2011,06,26,09,49,16.50
2011,06,26,09,50,16.60
2011,06,26,09,51,16.80
2011,06,26,09,52,16.80
2011,06,26,09,53,16.80
2011,06,26,09,54,16.70
2011,06,26,09,55,16.60
2011,06,26,09,56,16.60
2011,06,26,09,57,16.60
2011,06,26,09,58,16.50
2011,06,26,09,59,16.50
2011,06,26,10,00,16.50
2011,06,26,10,01,16.70
2011,06,26,10,02,16.80
2011,06,26,10,03,16.90
2011,06,26,10,04,17.10
2011,06,26,10,05,17.30
2011,06,26,10,06,17.60
2011,06,26,10,07,17.80
2011,06,26,10,08,17.90
2011,06,26,10,09,18.00
2011,06,26,10,10,18.20
2011,06,26,10,11,18.30
2011,06,26,10,12,18.30
2011,06,26,10,13,18.20
2011,06,26,10,14,18.00
2011,06,26,10,15,17.70
2011,06,26,10,16,17.60
2011,06,26,10,17,17.60
2011,06,26,10,18,17.40
2011,06,26,10,19,17.40
2011,06,26,10,20,17.50
2011,06,26,10,21,17.50
2011,06,26,10,22,17.40
2011,06,26,10,23,17.40
2011,06,26,10,24,17.40
2011,06,26,10,25,17.40
2011,06,26,10,26,17.50
2011,06,26,10,27,17.50
2011,06,26,10,28,17.70
2011,06,26,10,29,17.70
2011,06,26,10,30,17.70
2011,06,26,10,31,17.70
2011,06,26,10,32,17.70
2011,06,26,10,33,17.70
2011,06,26,10,34,17.80
2011,06,26,10,35,17.90
2011,06,26,10,36,18.10
2011,06,26,10,37,18.30
2011,06,26,10,38,18.40
2011,06,26,10,39,18.50
2011,06,26,10,40,18.60
2011,06,26,10,41,18.60
2011,06,26,10,42,18.50
2011,06,26,10,43,18.50
2011,06,26,10,44,18.50
2011,06,26,10,45,18.50
2011,06,26,10,46,18.50
2011,06,26,10,47,18.40
2011,06,26,10,48,18.50
2011,06,26,10,49,18.50
2011,06,26,10,50,18.50
2011,06,26,10,51,18.50
2011,06,26,10,52,18.30
2011,06,26,10,53,18.30
2011,06,26,10,54,18.30
2011,06,26,10,55,18.20
2011,06,26,10,56,18.30
2011,06,26,10,57,18.40
2011,06,26,10,58,18.50
2011,06,26,10,59,18.50
2011,06,26,11,00,18.30
2011,06,26,11,01,18.10
2011,06,26,11,02,18.00
2011,06,26,11,03,18.00
2011,06,26,11,04,18.00
2011,06,26,11,05,18.10
2011,06,26,11,06,18.20
2011,06,26,11,07,18.30
2011,06,26,11,08,18.40
2011,06,26,11,09,18.50
2011,06,26,11,10,18.60
2011,06,26,11,11,18.70
2011,06,26,11,12,18.90
2011,06,26,11,13,19.00
2011,06,26,11,14,19.10
2011,06,26,11,15,19.20
2011,06,26,11,16,19.30
2011,06,26,11,17,19.40
2011,06,26,11,18,19.40
2011,06,26,11,19,19.40
2011,06,26,11,20,19.40
2011,06,26,11,21,19.40
2011,06,26,11,22,19.40
2011,06,26,11,23,19.50
2011,06,26,11,24,19.40
2011,06,26,11,25,19.10
2011,06,26,11,26,18.80
2011,06,26,11,27,18.60
2011,06,26,11,28,18.60
2011,06,26,11,29,18.50
2011,06,26,11,30,18.60
2011,06,26,11,31,18.70
2011,06,26,11,32,18.70
2011,06,26,11,33,18.70
2011,06,26,11,34,18.70
2011,06,26,11,35,18.80
2011,06,26,11,36,18.80
2011,06,26,11,37,18.70
2011,06,26,11,38,18.60
2011,06,26,11,39,18.50
2011,06,26,11,40,18.40
2011,06,26,11,41,18.30
2011,06,26,11,42,18.30
2011,06,26,11,43,18.30
2011,06,26,11,44,18.30
2011,06,26,11,45,18.40
2011,06,26,11,46,18.70
2011,06,26,11,47,18.80
2011,06,26,11,48,19.00
2011,06,26,11,49,19.10
2011,06,26,11,50,19.20
2011,06,26,11,51,19.30
2011,06,26,11,52,19.40
2011,06,26,11,53,19.50
2011,06,26,11,54,19.60
2011,06,26,11,55,19.70
2011,06,26,11,56,19.80
2011,06,26,11,57,19.90
2011,06,26,11,58,20.00
2011,06,26,11,59,20.00
2011,06,26,12,00,19.90
2011,06,26,12,01,19.80
2011,06,26,12,02,19.70
2011,06,26,12,03,19.50
2011,06,26,12,04,19.60
2011,06,26,12,05,19.50
2011,06,26,12,06,19.50
2011,06,26,12,07,19.60
2011,06,26,12,08,19.70
2011,06,26,12,09,19.80
2011,06,26,12,10,19.80
2011,06,26,12,11,19.80
2011,06,26,12,12,19.80
2011,06,26,12,13,19.80
2011,06,26,12,14,19.80
2011,06,26,12,15,19.80
2011,06,26,12,16,19.80
2011,06,26,12,17,19.90
2011,06,26,12,18,20.00
2011,06,26,12,19,20.00
2011,06,26,12,20,19.90
2011,06,26,12,21,19.80
2011,06,26,12,22,19.80
2011,06,26,12,23,19.70
2011,06,26,12,24,19.70
2011,06,26,12,25,19.60
2011,06,26,12,26,19.50
2011,06,26,12,27,19.50
2011,06,26,12,28,19.50
2011,06,26,12,29,19.60
2011,06,26,12,30,19.60
2011,06,26,12,31,19.70
2011,06,26,12,32,19.70
2011,06,26,12,33,19.70
2011,06,26,12,34,19.70
2011,06,26,12,35,19.80
2011,06,26,12,36,19.80
2011,06,26,12,37,19.80
2011,06,26,12,38,19.70
2011,06,26,12,39,19.60
2011,06,26,12,40,19.60
2011,06,26,12,41,19.70
2011,06,26,12,42,19.70
2011,06,26,12,43,19.70
2011,06,26,12,44,19.70
2011,06,26,12,45,19.80
2011,06,26,12,46,19.80
2011,06,26,12,47,19.90
2011,06,26,12,48,19.80
2011,06,26,12,49,19.90
2011,06,26,12,50,19.80
2011,06,26,12,51,19.70
2011,06,26,12,52,19.70
2011,06,26,12,53,19.70
2011,06,26,12,54,19.80
2011,06,26,12,55,19.70
2011,06,26,12,56,19.80
2011,06,26,12,57,19.80
2011,06,26,12,58,19.80
2011,06,26,12,59,19.80
2011,06,26,13,00,19.90
2011,06,26,13,01,19.90
2011,06,26,13,02,20.00
2011,06,26,13,03,20.10
2011,06,26,13,04,20.20
2011,06,26,13,05,20.30
2011,06,26,13,06,20.20
2011,06,26,13,07,20.20
2011,06,26,13,08,20.20
2011,06,26,13,09,20.20
2011,06,26,13,10,20.30
2011,06,26,13,11,20.30
2011,06,26,13,12,20.40
2011,06,26,13,13,20.30
2011,06,26,13,14,20.30
2011,06,26,13,15,20.40
2011,06,26,13,16,20.40
2011,06,26,13,17,20.20
2011,06,26,13,18,20.20
2011,06,26,13,19,20.10
2011,06,26,13,20,20.10
2011,06,26,13,21,20.10
2011,06,26,13,22,20.10
2011,06,26,13,23,20.10
2011,06,26,13,24,20.10
2011,06,26,13,25,20.20
2011,06,26,13,26,20.30
2011,06,26,13,27,20.40
2011,06,26,13,28,20.30
2011,06,26,13,29,20.20
2011,06,26,13,30,20.00
2011,06,26,13,31,19.90
2011,06,26,13,32,19.90
2011,06,26,13,33,19.90
2011,06,26,13,34,19.90
2011,06,26,13,35,19.90
2011,06,26,13,36,19.80
2011,06,26,13,37,19.80
2011,06,26,13,38,19.90
2011,06,26,13,39,19.80
2011,06,26,13,40,19.90
2011,06,26,13,41,20.00
2011,06,26,13,42,20.10
2011,06,26,13,43,20.10
2011,06,26,13,44,20.10
2011,06,26,13,45,20.10
2011,06,26,13,46,20.20
2011,06,26,13,47,20.30
2011,06,26,13,48,20.40
2011,06,26,13,49,20.50
2011,06,26,13,50,20.60
2011,06,26,13,51,20.70
2011,06,26,13,52,20.60
2011,06,26,13,53,20.60
2011,06,26,13,54,20.40
2011,06,26,13,55,20.30
2011,06,26,13,56,20.00
2011,06,26,13,57,19.80
2011,06,26,13,58,19.70
2011,06,26,13,59,19.70
2011,06,26,14,00,19.90
2011,06,26,14,01,20.10
2011,06,26,14,02,20.30
2011,06,26,14,03,20.40
2011,06,26,14,04,20.50
2011,06,26,14,05,20.60
2011,06,26,14,06,20.80
2011,06,26,14,07,20.80
2011,06,26,14,08,20.60
2011,06,26,14,09,20.60
2011,06,26,14,10,20.70
2011,06,26,14,11,20.80
2011,06,26,14,12,20.70
2011,06,26,14,13,20.70
2011,06,26,14,14,20.60
2011,06,26,14,15,20.50
2011,06,26,14,16,20.30
2011,06,26,14,17,20.20
2011,06,26,14,18,20.10
2011,06,26,14,19,20.10
2011,06,26,14,20,20.20
2011,06,26,14,21,20.40
2011,06,26,14,22,20.60
2011,06,26,14,23,20.70
2011,06,26,14,24,20.70
2011,06,26,14,25,20.80
2011,06,26,14,26,20.70
2011,06,26,14,27,20.80
2011,06,26,14,28,21.00
2011,06,26,14,29,21.10
2011,06,26,14,30,21.20
2011,06,26,14,31,21.20
2011,06,26,14,32,21.30
2011,06,26,14,33,21.20
2011,06,26,14,34,21.20
2011,06,26,14,35,21.00
2011,06,26,14,36,21.00
2011,06,26,14,37,20.90
2011,06,26,14,38,20.90
2011,06,26,14,39,20.90
2011,06,26,14,40,20.90
2011,06,26,14,41,20.80
2011,06,26,14,42,20.60
2011,06,26,14,43,20.50
2011,06,26,14,44,20.40
2011,06,26,14,45,20.40
2011,06,26,14,46,20.30
2011,06,26,14,47,20.10
2011,06,26,14,48,19.90
2011,06,26,14,49,20.00
2011,06,26,14,50,20.10
2011,06,26,14,51,20.20
2011,06,26,14,52,20.40
2011,06,26,14,53,20.40
2011,06,26,14,54,20.60
2011,06,26,14,55,20.70
2011,06,26,14,56,20.70
2011,06,26,14,57,20.70
2011,06,26,14,58,20.80
2011,06,26,14,59,20.90
2011,06,26,15,00,20.90
2011,06,26,15,01,20.90
2011,06,26,15,02,20.90
2011,06,26,15,03,20.90
2011,06,26,15,04,20.90
2011,06,26,15,05,20.90
2011,06,26,15,06,21.00
2011,06,26,15,07,21.10
2011,06,26,15,08,21.20
2011,06,26,15,09,21.20
2011,06,26,15,10,21.20
2011,06,26,15,11,21.20
2011,06,26,15,12,21.20
2011,06,26,15,13,21.10
2011,06,26,15,14,21.00
2011,06,26,15,15,20.90
2011,06,26,15,16,20.90
2011,06,26,15,17,21.00
2011,06,26,15,18,21.10
2011,06,26,15,19,21.20
2011,06,26,15,20,21.40
2011,06,26,15,21,21.40
2011,06,26,15,22,21.40
2011,06,26,15,23,21.50
2011,06,26,15,24,21.50
2011,06,26,15,25,21.50
2011,06,26,15,26,21.40
2011,06,26,15,27,21.30
2011,06,26,15,28,21.30
2011,06,26,15,29,21.40
2011,06,26,15,30,21.50
2011,06,26,15,31,21.20
2011,06,26,15,32,20.80
2011,06,26,15,33,20.70
2011,06,26,15,34,20.60
2011,06,26,15,35,20.70
2011,06,26,15,36,20.60
2011,06,26,15,37,20.50
2011,06,26,15,38,20.50
2011,06,26,15,39,20.60
2011,06,26,15,40,20.60
2011,06,26,15,41,20.60
2011,06,26,15,42,20.70
2011,06,26,15,43,20.70
2011,06,26,15,44,20.70
2011,06,26,15,45,20.70
2011,06,26,15,46,20.80
2011,06,26,15,47,20.80
2011,06,26,15,48,20.90
2011,06,26,15,49,20.90
2011,06,26,15,50,20.90
2011,06,26,15,51,20.80
2011,06,26,15,52,20.80
2011,06,26,15,53,20.70
2011,06,26,15,54,20.70
2011,06,26,15,55,20.70
2011,06,26,15,56,20.70
2011,06,26,15,57,20.70
2011,06,26,15,58,20.70
2011,06,26,15,59,20.70
2011,06,26,16,00,20.70
2011,06,26,16,01,20.70
2011,06,26,16,02,20.70
2011,06,26,16,03,20.70
2011,06,26,16,04,20.60
2011,06,26,16,05,20.60
2011,06,26,16,06,20.50
2011,06,26,16,07,20.40
2011,06,26,16,08,20.40
2011,06,26,16,09,20.30
2011,06,26,16,10,20.20
2011,06,26,16,11,20.10
2011,06,26,16,12,20.00
2011,06,26,16,13,19.90
2011,06,26,16,14,19.80
2011,06,26,16,15,19.80
2011,06,26,16,16,19.80
2011,06,26,16,17,19.90
2011,06,26,16,18,20.00
2011,06,26,16,19,20.10
2011,06,26,16,20,20.20
2011,06,26,16,21,20.20
2011,06,26,16,22,20.20
2011,06,26,16,23,20.10
2011,06,26,16,24,20.00
2011,06,26,16,25,19.80
2011,06,26,16,26,19.80
2011,06,26,16,27,19.80
2011,06,26,16,28,19.80
2011,06,26,16,29,19.70
2011,06,26,16,30,19.60
2011,06,26,16,31,19.60
2011,06,26,16,32,19.50
2011,06,26,16,33,19.40
2011,06,26,16,34,19.50
2011,06,26,16,35,19.60
2011,06,26,16,36,19.70
2011,06,26,16,37,19.80
2011,06,26,16,38,19.80
2011,06,26,16,39,19.90
2011,06,26,16,40,19.80
2011,06,26,16,41,19.70
2011,06,26,16,42,19.60
2011,06,26,16,43,19.60
2011,06,26,16,44,19.50
2011,06,26,16,45,19.50
2011,06,26,16,46,19.60
2011,06,26,16,47,19.70
2011,06,26,16,48,19.60
2011,06,26,16,49,19.70
2011,06,26,16,50,19.70
2011,06,26,16,51,19.80
2011,06,26,16,52,19.80
2011,06,26,16,53,19.90
2011,06,26,16,54,19.90
2011,06,26,16,55,20.00
2011,06,26,16,56,20.00
2011,06,26,16,57,20.10
2011,06,26,16,58,20.20
2011,06,26,16,59,20.10
2011,06,26,17,00,20.10
2011,06,26,17,01,20.10
2011,06,26,17,02,20.00
2011,06,26,17,03,19.90
2011,06,26,17,04,19.80
2011,06,26,17,05,19.60
2011,06,26,17,06,19.60
2011,06,26,17,07,19.60
2011,06,26,17,08,19.60
2011,06,26,17,09,19.50
2011,06,26,17,10,19.40
2011,06,26,17,11,19.40
2011,06,26,17,12,19.40
2011,06,26,17,13,19.30
2011,06,26,17,14,19.30
2011,06,26,17,15,19.20
2011,06,26,17,16,19.20
2011,06,26,17,17,19.10
2011,06,26,17,18,19.10
2011,06,26,17,19,19.20
2011,06,26,17,20,19.30
2011,06,26,17,21,19.30
2011,06,26,17,22,19.30
2011,06,26,17,23,19.30
2011,06,26,17,24,19.30
2011,06,26,17,25,19.30
2011,06,26,17,26,19.40
2011,06,26,17,27,19.50
2011,06,26,17,28,19.60
2011,06,26,17,29,19.70
2011,06,26,17,30,19.80
2011,06,26,17,31,20.00
2011,06,26,17,32,20.10
2011,06,26,17,33,20.20